CloseHelpProblem

Burley Spudman

07/28/12


PlBibName RepresentingAge Division Interval TimeTime BackTotal Time
11301Whitney PHILLIPSBOUNTIFUL UT USA07 M 45-4901:01:35.502+0:0001:24:55.470
21285Steven ORROCKALPINE UT USA07 M 45-4901:01:37.888+0:02.301:20:24.892
31302Tracy MOBLEYRIGBY ID USA07 M 45-4901:03:39.298+2:01.401:24:46.760
41306Adam DEWAALSLC UT USA07 M 45-4901:03:42.492+2:04.601:25:56.931
51263Bart LARSENIDAHO FALLS ID USA07 M 45-4901:04:33.358+2:55.401:27:25.115
61328Doug LENIOPOCATELLO ID USA07 M 45-4901:05:07.770+3:29.801:22:38.854
71233Alan SMILEYPROVO UT USA07 M 45-4901:05:19.106+3:41.201:25:20.4
81257Bruno GERBERRIVERTON UT USA07 M 45-4901:05:54.246+0:35.101:25:36.997
91227Glenn WAKEFIELDHEBER CITY UT USA07 M 45-4901:06:03.910+0:44.801:30:58.506
101320David LARSONCENTERVILLE UT USA07 M 45-4901:06:07.058+0:47.901:31:37.807
111249Paul SLADEMURRAY UT USA07 M 45-4901:06:46.256+1:27.101:27:33.542
121287Brad BARLOWFRUITLAND ID USA07 M 45-4901:07:44.308+2:25.201:27:34.996
131266Temp PATTERSONBURLEY ID USA07 M 45-4901:07:53.843+2:34.701:31:55.315
141251Michael HOUSLEYSMITHFIELD UT USA07 M 45-4901:08:54.872+3:35.701:33:49.242
151230Thayne PETERSONALPINE UT USA07 M 45-4901:08:55.448+3:36.301:33:26.936
161265Greg ANDERSONSOUTH JORDAN UT USA07 M 45-4901:09:07.246+3:48.101:31:46.378
171229Brian PIKETWIN FALLS ID USA07 M 45-4901:09:37.423+4:18.301:37:45.895
181231Jeff OTTORIVERTON UT USA07 M 45-4901:10:07.034+4:47.901:32:16.663
191280Tim CHESLEYPARK CITY UT USA07 M 45-4901:10:57.610+5:38.501:38:08.100
201293Lonnie HUNTERSOUTH JORDAN UT USA07 M 45-4901:11:21.297+6:02.101:35:41.808
211297Doug GARRETTMILLVILLE UT USA07 M 45-4901:11:33.571+6:14.401:37:45.162
221271Andy BOYCEDRAPER UT USA07 M 45-4901:12:08.326+6:49.201:44:03.305
231272Brad CHILTONPOCATELLO ID USA07 M 45-4901:12:11.202+6:52.001:41:45.280
241238Shane DAMRONINKOM ID USA07 M 45-4901:12:26.574+7:07.401:38:11.569
251260Myron VAWDREYDRAPER UT USA07 M 45-4901:12:31.602+7:12.401:43:08.568
261310Lonnie MCMURTREYTHORNTON CO USA07 M 45-4901:13:28.841+8:09.701:46:05.387
271300Bart HANSONJACKSON ID USA07 M 45-4901:13:51.565+8:32.401:41:47.594
281329Perry CRAWFORDTREMONTON UT USA07 M 45-4901:14:00.077+8:40.901:40:50.879
291261Matthew MITTONBOUNTIFUL UT USA07 M 45-4901:14:01.445+8:42.301:47:59.802
301250Curt EVANSSOUTH JORDAN UT USA07 M 45-4901:14:25.989+9:06.801:45:44.497
311288William ASHTONSOUTH JORDAN UT USA07 M 45-4901:14:30.576+9:11.401:39:48.348
321244Shon RINDLISBACHERRIVERTON UT USA07 M 45-4901:14:36.993+9:17.801:42:40.666
331319Daniel SORENSENSALT LAKE CITY UT USA07 M 45-4901:14:48.918+9:29.801:45:25.0
341232Frank MENDEZMURRAY UT USA07 M 45-4901:14:50.322+9:31.201:41:53.857
351324Alan DAYLEYALPINE UT USA07 M 45-4901:15:33.673+10:14.501:54:18.972
361312Stuart ROBERTSONVANCOUVER WA USA07 M 45-4901:15:46.217+10:27.101:43:38.394
371323Sean KUNZLEROGDEN UT USA07 M 45-4901:15:50.656+10:31.501:44:13.045
381289Kevin HALVERSONRUPERT ID USA07 M 45-4901:15:51.750+10:32.601:48:10.078
391247Kleigh HUMPHREYSALT LAKE CITY UT USA07 M 45-4901:15:53.291+10:34.101:35:45.108
401255Daren GEHRINGNORTH LOGAN UT USA07 M 45-4901:15:53.306+10:34.201:40:22.932
411239Gregg GREEREDEN UT USA07 M 45-4901:16:19.430+11:00.301:46:19.251
421332Aaron HALLSALT LAKE CITY UT USA07 M 45-4901:16:26.725+11:07.602:04:09.075
431291Scott DEBERARDNORTH LOGAN UT USA07 M 45-4901:16:27.751+11:08.601:37:59.032
441303Matt BRIDGESBUHL ID USA07 M 45-4901:16:30.254+11:11.101:38:09.534
451282Robert CONLEEALPINE UT USA07 M 45-4901:16:46.845+11:27.701:43:05.057
461237Ron VAN TIENDERENSALT LAKE CITY UT USA07 M 45-4901:17:28.367+12:09.201:43:42.957
471268Daniel SNOWPROVO UT USA07 M 45-4901:17:55.516+12:36.401:46:28.783
481248Paul KORTHWEST JORDAN UT USA07 M 45-4901:18:07.615+12:48.501:42:57.863
491311Morgan GOFFSAN DIEGO CA USA07 M 45-4901:18:12.363+12:53.201:51:38.563
501226Anthony BARNHARTTWIN FALLS ID USA07 M 45-4901:18:56.324+13:37.201:46:37.609
511242Darin ANDERSONLEHI UT USA07 M 45-4901:18:57.550+13:38.401:41:14.090
521270Barry JOHNSONALPINE UT USA07 M 45-4901:19:02.895+13:43.701:49:20.726
531292Jeff LAWRENCEIDAHO FALLS ID USA07 M 45-4901:19:16.394+13:57.201:56:00.856
541259Brad BURGESSWEST JORDAN UT USA07 M 45-4901:19:56.795+14:37.601:45:08.809
551294Alan NIELSONLITTLE ELM TX USA07 M 45-4901:20:46.961+15:27.801:56:10.284
561241Kris PAINTERRIVERTON UT USA07 M 45-4901:21:27.038+16:07.901:45:57.687
571235Greg SCHERERNORTH OGDEN UT USA07 M 45-4901:22:02.996+16:43.801:49:47.353
581276David MOXHAMDRAPER UT USA07 M 45-4901:22:17.053+16:57.901:47:55.249
591978Richard MATHESON07 M 45-4901:22:17.830+16:58.701:53:10.616
601281Brad CHRISTENSENALPINE UT USA07 M 45-4901:22:19.639+17:00.501:46:05.286
611298Peter KLAASSIDAHO FALLS ID USA07 M 45-4901:23:38.042+18:18.901:56:37.642
621279Daren STEGELMEIERMORGAN UT USA07 M 45-4901:24:16.770+18:57.601:57:49.787
631252Tony CHRISTENSENKAYSVILLE UT USA07 M 45-4901:24:24.150+19:05.001:57:37.443
641240Tim JONESBOUNTIFUL UT USA07 M 45-4901:24:26.232+19:07.101:54:01.252
651313Lynn LANGFORDALPINE UT USA07 M 45-4901:24:30.033+19:10.901:55:20.234
661254Jeffrey KINGKAYSVILLE UT USA07 M 45-4901:25:06.067+19:46.901:52:18.629
671286Craig RASBANDFARMINGTON UT USA07 M 45-4901:26:09.686+20:50.501:56:56.379
681277David BLACKBURNEAGLE MTN UT USA07 M 45-4901:26:42.577+21:23.401:49:13.905
691290Matthew JOHNSONCENTERVILLE UT USA07 M 45-4901:27:12.996+21:53.802:04:51.000
701278Glen ALLENBURLEY ID USA07 M 45-4901:27:39.840+22:20.701:52:53.915
711321Brian WOLSEYALPINE UT USA07 M 45-4901:32:15.570+26:56.402:06:16.179